Regional Weather Roundup
Issued by NWS

Home | Current Version | Previous Version | Graphics & Text | Print | Product List | Glossary On
Versions: 1 2 3 4 5 6 7 8 9 10 11 12 13 14 15 16 17 18 19 20 21 22 23 24 25 26 27 28 29 30 31 32 33 34 35 36 37 38 39 40 41 42 43 44 45 46 47 48
000
ASUS45 KBOU 262307
RWRCO

WEATHER ROUNDUP FOR COLORADO
NATIONAL WEATHER SERVICE DENVER/BOULDER CO
400 PM MST THU FEB 26 2015

NOTE: "FAIR" INDICATES FEW OR NO CLOUDS BELOW 12000 FEET WITH NO
SIGNIFICANT WEATHER AND/OR OBSTRUCTIONS TO VISIBILITY.

COZ001>005-013-030-031-270000-
...NORTHWEST COLORADO...

CITY           SKY/WX    TMP DP  RH WIND       PRES   REMARKS
CRAIG          LGT SNOW  29  22  75 CALM      29.87F
HAYDEN         CLOUDY    27  16  63 SW3       29.86F
MEEKER         LGT SNOW  30  23  75 CALM      29.85F
MOUNT WERNER   NOT AVBL
STEAMBOAT SPGS CLOUDY    26  12  57 CALM      29.85F
WALDEN         CLOUDY    19  12  73 NW9       29.84F WCI   9
$$

COZ006>008-011-270000-
...WEST CENTRAL VALLEYS...

CITY           SKY/WX    TMP DP  RH WIND       PRES   REMARKS
GRAND JUNCTION CLOUDY    42  15  33 CALM      29.85F
MONTROSE       CLOUDY    32  20  61 CALM      29.88F
EAGLE          CLOUDY    34  18  51 SW17      29.85S WCI  23
RIFLE          CLOUDY    41  12  30 SW13G21   29.84F
DELTA          CLOUDY    38  26  63 CALM      29.87F
NUCLA          CLOUDY    37  16  41 CALM      29.89S
$$

COZ017>023-064>068-270000-
...SOUTHWEST COLORADO...

CITY           SKY/WX    TMP DP  RH WIND       PRES   REMARKS
DURANGO        CLOUDY    34  24  67 NE5       29.87F WCI  30
CORTEZ         CLOUDY    39  23  52 SW8       29.87F
PAGOSA SPRINGS CLOUDY    35  18  49 SW8       29.87S WCI  29
TELLURIDE      CLOUDY    28  10  45 CALM      29.85S
WOLF CREEK PAS CLOUDY    12   9  85 SW24G32   29.84F WCI  -8
$$

COZ009-010-012-014-032>034-037-058>063-270000-
...CENTRAL COLORADO...

CITY           SKY/WX    TMP DP  RH WIND       PRES   REMARKS
ASPEN          FLURRIES  25  17  72 CALM      29.82S
BUENA VISTA    CLOUDY    23  14  69 CALM      29.84S
COPPER MTN     LGT SNOW  14   7  73 W10G18    29.75S VSB 1   WCI   1
BERTHOUD PASS  SNOW       3  -4  72 NW7       29.74F VSB 1/2 WCI  -9
COTTONWOOD PAS LGT SNOW  21  14  73 SE3       29.79F
GUNNISON       CLOUDY    25   9  50 NE5       29.88S WCI  19
KREMMLING      LGT SNOW  23  16  74 NW3       29.86F
LEADVILLE      CLOUDY    18   9  68 N9        29.77F WCI   7
MONARCH PASS     N/A     10   5  79 MISG      29.87S
SALIDA         CLOUDY    22  15  75 SE18G28   29.93R WCI   7
SUNLIGHT       SNOW      19  16  86 CALM        N/A  VSB 1/2
WILKERSON PASS LGT SNOW  12   9  85 SW6       29.80S VSB 3/4 WCI   3
$$

COZ069>075-270000-
...SAN LUIS VALLEY/SANGRE DE CRISTO MOUNTAINS...

CITY           SKY/WX    TMP DP  RH WIND       PRES   REMARKS
ALAMOSA        PTSUNNY   31  22  69 S10       29.84F WCI  22
LA VETA PASS   LGT SNOW  19  16  86 MISG      29.82S
SAGUACHE       CLOUDY    27  18  69 SE5       29.86F WCI  21
$$

COZ035-036-038>040-270000-
...NORTHERN COLORADO FRONT RANGE...

CITY           SKY/WX    TMP DP  RH WIND       PRES   REMARKS
DENVER INTL AP SNOW      15  12  88 E16       30.11S VSB 1/2 WCI  -1
DMNS CITY PARK   N/A     16  13  87 NE6G13    30.12R WCI   8
AURORA         LGT SNOW  15  12  87 E13       30.09S VSB 1   WCI   1
FRONT RANGE AP LGT SNOW  18  12  79 SE6       30.11S WCI   9
ERIE MUNI ARPT LGT SNOW  17  13  83 N3        30.14S
BOULDER MUN AP LGT SNOW  18  12  79 NE5       30.13S WCI  11
CENTENNIAL     SNOW      15  11  83 NE9       30.06S VSB 1/2 WCI   3
BROOMFIELD     LGT SNOW  18  12  79 N8        30.10S VSB 3/4 WCI   7
FORT COLLINS   CLOUDY    18  12  79 SE12      30.16S WCI   5
LONGMONT       LGT SNOW  23  15  71 CALM      30.17S
$$

COZ041-046-047-076>085-087-088-270000-
...PIKES PEAK/PALMER DIVIDE AND SOUTHERN FOOTHILLS...

CITY           SKY/WX    TMP DP  RH WIND       PRES   REMARKS
COLO. SPRINGS  LGT SNOW  13   8  81 SE16      30.07R WCI  -3
A. F. ACADEMY  LGT SNOW  12   5  73 SE10      30.02S WCI  -1
ELLICOTT       NOT AVBL
FALCON         LGT SNOW  10   5  80 SE13      30.03R VSB 1   WCI  -5
FORT CARSON    SNOW      12   9  85 SE14      30.07R VSB 1/4 WCI  -3
LIMON          SNOW      13  10  88 SE9       30.13S VSB 1/4 WCI   1
MONUMENT HILL  LGT SNOW  12   7  79 S13       29.99S VSB 1   WCI  -3
TRINIDAD       FLURRIES  21  16  81 E5        30.02S WCI  15
$$

COZ042>045-048>051-090-091-270000-
...NORTHEAST COLORADO...

CITY           SKY/WX    TMP DP  RH WIND       PRES   REMARKS
GREELEY ARPT   CLOUDY    18   9  68 E13       30.16S WCI   4
AKRON          LGT SNOW  14   8  77 E8        30.20S WCI   3
BURLINGTON     LGT SNOW  17   9  70 E8        30.24S WCI   7
WRAY           LGT SNOW  20  11  69 E6        30.29S WCI  12
STERLING       CLOUDY    19   9  63 E8        30.25S WCI   9
HOLYOKE        NOT AVBL
FORT MORGAN    CLOUDY    16   9  74 E10       30.21F HAZE    WCI   4
$$

COZ086-089-092>099-270000-
...SOUTHEAST COLORADO...

CITY           SKY/WX    TMP DP  RH WIND       PRES   REMARKS
PUEBLO         LGT SNOW  17  12  80 SE16      30.15R WCI   2
LA JUNTA       LGT SNOW  19  13  77 SE18      30.20R WCI   4
LAMAR          LGT SNOW  19  13  77 SE14      30.24S WCI   6
SPRINGFIELD      N/A     16  11  80 E13       30.20R WCI   2
$$


USA.gov is the U.S. government's official web portal to all federal, state and local government web resources and services.